CCA310 RJBB-ZSPD

Flight info

Callsign CCA310
Flight time 2h 15m
Altitude 38000
Route LINDA SHION HABAR Y60 ISAKY Y592 ONIKU A593 LAMEN/K0843F380 A593 AKARA/K0845S1160 A593 DUMET DUM81A
Aircraft A20N/M-SDE2E3FGHIRWXY/LB1

Departure

Time 2026-05-05 05:27
Airport Kansai International Airport (RJBB)

Arrival

Time 2026-05-05 07:43
Airport Shanghai Pudong International Airport (ZSPD)
Time Latitude Longitude Altitude Speed Heading
2026-05-05 05:07 34.43176 135.24230 22 ft 0 kts 321°
2026-05-05 05:13 34.43169 135.24237 29 ft 2 kts 320°
2026-05-05 05:13 34.43156 135.24250 22 ft 2 kts 321°
2026-05-05 05:13 34.43143 135.24262 23 ft 2 kts 321°
2026-05-05 05:14 34.43132 135.24274 23 ft 1 kts 321°
2026-05-05 05:14 34.43130 135.24275 23 ft 0 kts 321°
2026-05-05 05:14 34.43122 135.24284 22 ft 2 kts 308°
2026-05-05 05:15 34.43116 135.24302 24 ft 2 kts 266°
2026-05-05 05:15 34.43121 135.24321 23 ft 2 kts 234°
2026-05-05 05:15 34.43125 135.24327 24 ft 0 kts 232°
2026-05-05 05:17 34.43122 135.24322 24 ft 4 kts 232°
2026-05-05 05:17 34.43085 135.24266 24 ft 13 kts 229°
2026-05-05 05:17 34.43010 135.24155 22 ft 20 kts 231°
2026-05-05 05:17 34.42919 135.24020 22 ft 20 kts 231°
2026-05-05 05:18 34.42831 135.23888 22 ft 20 kts 231°
2026-05-05 05:18 34.42788 135.23758 22 ft 16 kts 304°
2026-05-05 05:18 34.42872 135.23671 23 ft 16 kts 321°
2026-05-05 05:18 34.42957 135.23587 23 ft 16 kts 321°
2026-05-05 05:19 34.43021 135.23509 22 ft 15 kts 287°
2026-05-05 05:19 34.42979 135.23402 22 ft 14 kts 232°
2026-05-05 05:19 34.43003 135.23317 23 ft 11 kts 320°
2026-05-05 05:19 34.43069 135.23253 28 ft 15 kts 320°
2026-05-05 05:20 34.43156 135.23168 27 ft 15 kts 320°
2026-05-05 05:20 34.43228 135.23097 31 ft 11 kts 321°
2026-05-05 05:20 34.43290 135.23037 32 ft 13 kts 321°
2026-05-05 05:20 34.43372 135.22957 32 ft 18 kts 321°
2026-05-05 05:21 34.43476 135.22856 32 ft 20 kts 321°
2026-05-05 05:21 34.43583 135.22753 32 ft 20 kts 321°
2026-05-05 05:21 34.43688 135.22652 32 ft 20 kts 319°
2026-05-05 05:21 34.43793 135.22547 32 ft 19 kts 319°
2026-05-05 05:22 34.43834 135.22424 32 ft 17 kts 237°
2026-05-05 05:22 34.43762 135.22311 32 ft 17 kts 231°
2026-05-05 05:22 34.43689 135.22203 32 ft 16 kts 231°
2026-05-05 05:22 34.43617 135.22096 32 ft 16 kts 231°
2026-05-05 05:23 34.43546 135.21989 32 ft 16 kts 231°
2026-05-05 05:23 34.43476 135.21885 32 ft 16 kts 230°
2026-05-05 05:23 34.43406 135.21782 32 ft 16 kts 231°
2026-05-05 05:23 34.43338 135.21682 32 ft 15 kts 231°
2026-05-05 05:24 34.43271 135.21581 32 ft 15 kts 231°
2026-05-05 05:24 34.43202 135.21479 32 ft 17 kts 231°
2026-05-05 05:24 34.43113 135.21346 32 ft 23 kts 231°
2026-05-05 05:24 34.43020 135.21193 32 ft 16 kts 265°
2026-05-05 05:25 34.43052 135.21131 32 ft 0 kts 322°
2026-05-05 05:25 34.43056 135.21127 32 ft 4 kts 322°
2026-05-05 05:25 34.43090 135.21096 32 ft 6 kts 322°
2026-05-05 05:26 34.43124 135.21064 32 ft 6 kts 322°
2026-05-05 05:26 34.43160 135.21065 32 ft 7 kts 56°
2026-05-05 05:26 34.43185 135.21107 33 ft 0 kts 51°
2026-05-05 05:26 34.43210 135.21145 33 ft 25 kts 51°
2026-05-05 05:27 34.43471 135.21532 36 ft 92 kts 51°
2026-05-05 05:27 34.44008 135.22330 34 ft 151 kts 52°
2026-05-05 05:27 34.45568 135.24303 917 ft 181 kts 18°
2026-05-05 05:28 34.46863 135.24227 1080 ft 205 kts 334°
2026-05-05 05:28 34.47923 135.22900 951 ft 243 kts 294°
2026-05-05 05:28 34.48311 135.20736 707 ft 284 kts 277°
2026-05-05 05:28 34.48549 135.18208 584 ft 315 kts 278°
2026-05-05 05:29 34.48888 135.15607 1402 ft 307 kts 280°
2026-05-05 05:29 34.49285 135.13104 2371 ft 297 kts 281°
2026-05-05 05:29 34.49712 135.10689 3317 ft 288 kts 282°
2026-05-05 05:29 34.50060 135.08353 4379 ft 278 kts 274°
2026-05-05 05:30 34.50146 135.06028 5490 ft 273 kts 269°
2026-05-05 05:30 34.50166 135.03728 6492 ft 273 kts 269°
2026-05-05 05:30 34.50179 135.01414 7378 ft 276 kts 269°
2026-05-05 05:30 34.50203 134.99103 8222 ft 280 kts 270°
2026-05-05 05:31 34.50241 134.96742 9114 ft 283 kts 271°
2026-05-05 05:31 34.50285 134.94332 10014 ft 287 kts 271°
2026-05-05 05:31 34.50332 134.91823 10552 ft 304 kts 271°
2026-05-05 05:31 34.50380 134.89191 10882 ft 327 kts 270°
2026-05-05 05:32 34.50374 134.86350 11171 ft 348 kts 265°
2026-05-05 05:32 34.50098 134.83390 11621 ft 360 kts 261°
2026-05-05 05:32 34.49714 134.80349 12285 ft 366 kts 260°
2026-05-05 05:32 34.49311 134.77288 13048 ft 369 kts 259°
2026-05-05 05:33 34.48903 134.74192 13823 ft 373 kts 259°
2026-05-05 05:33 34.48493 134.71070 14527 ft 376 kts 259°
2026-05-05 05:33 34.48082 134.67937 15264 ft 377 kts 259°
2026-05-05 05:33 34.47671 134.64797 16010 ft 378 kts 259°
2026-05-05 05:34 34.47262 134.61679 16750 ft 379 kts 259°
2026-05-05 05:34 34.46847 134.58517 17482 ft 381 kts 260°
2026-05-05 05:34 34.46429 134.55336 18211 ft 383 kts 260°
2026-05-05 05:34 34.46009 134.52143 18859 ft 384 kts 260°
2026-05-05 05:35 34.45587 134.48951 19508 ft 385 kts 260°
2026-05-05 05:35 34.45165 134.45753 20176 ft 384 kts 260°
2026-05-05 05:35 34.44742 134.42560 20814 ft 385 kts 260°
2026-05-05 05:35 34.44316 134.39349 21437 ft 385 kts 260°
2026-05-05 05:36 34.43889 134.36145 22039 ft 386 kts 260°
2026-05-05 05:36 34.43460 134.32927 22620 ft 387 kts 260°
2026-05-05 05:36 34.43030 134.29703 23192 ft 388 kts 260°
2026-05-05 05:36 34.42565 134.26485 23760 ft 389 kts 259°
2026-05-05 05:37 34.42070 134.23259 24183 ft 390 kts 259°
2026-05-05 05:37 34.41570 134.20031 24721 ft 389 kts 259°
2026-05-05 05:37 34.41070 134.16818 25271 ft 387 kts 258°
2026-05-05 05:37 34.40572 134.13611 25787 ft 386 kts 258°
2026-05-05 05:38 34.40075 134.10422 26256 ft 386 kts 258°
2026-05-05 05:38 34.39583 134.07266 26707 ft 386 kts 258°
2026-05-05 05:38 34.39084 134.04071 27139 ft 386 kts 258°
2026-05-05 05:38 34.38584 134.00869 27552 ft 386 kts 258°
2026-05-05 05:39 34.38081 133.97664 27950 ft 387 kts 258°
2026-05-05 05:39 34.37580 133.94466 28351 ft 387 kts 258°
2026-05-05 05:39 34.37076 133.91262 28815 ft 386 kts 258°
2026-05-05 05:39 34.36578 133.88096 29418 ft 381 kts 257°
2026-05-05 05:40 34.36086 133.84971 30035 ft 376 kts 257°
2026-05-05 05:40 34.35604 133.81920 30588 ft 371 kts 257°
2026-05-05 05:40 34.35122 133.78869 31069 ft 367 kts 257°
2026-05-05 05:40 34.34642 133.75844 31511 ft 364 kts 257°
2026-05-05 05:41 34.34167 133.72849 31930 ft 361 kts 257°
2026-05-05 05:41 34.33694 133.69880 32357 ft 358 kts 257°
2026-05-05 05:41 34.33225 133.66931 32781 ft 355 kts 257°
2026-05-05 05:41 34.32759 133.64012 33199 ft 352 kts 257°
2026-05-05 05:42 34.32294 133.61113 33603 ft 349 kts 256°
2026-05-05 05:42 34.31722 133.58271 34004 ft 346 kts 252°
2026-05-05 05:42 34.31014 133.55507 34355 ft 343 kts 251°
2026-05-05 05:42 34.30258 133.52773 34571 ft 343 kts 251°
2026-05-05 05:43 34.29475 133.50042 34752 ft 344 kts 250°
2026-05-05 05:43 34.28680 133.47309 34924 ft 345 kts 250°
2026-05-05 05:43 34.27892 133.44602 35106 ft 346 kts 250°
2026-05-05 05:43 34.27096 133.41855 35296 ft 346 kts 250°
2026-05-05 05:44 34.26299 133.39092 35486 ft 347 kts 251°
2026-05-05 05:44 34.25508 133.36337 35680 ft 347 kts 251°
2026-05-05 05:44 34.24717 133.33580 35865 ft 347 kts 251°
2026-05-05 05:44 34.23927 133.30821 36048 ft 347 kts 251°
2026-05-05 05:45 34.23135 133.28061 36229 ft 348 kts 251°
2026-05-05 05:45 34.22341 133.25295 36405 ft 348 kts 251°
2026-05-05 05:45 34.21558 133.22570 36580 ft 348 kts 251°
2026-05-05 05:45 34.20764 133.19810 36738 ft 349 kts 251°
2026-05-05 05:46 34.19966 133.17037 36887 ft 349 kts 251°
2026-05-05 05:46 34.19165 133.14262 37048 ft 350 kts 251°
2026-05-05 05:46 34.18366 133.11492 37199 ft 350 kts 251°
2026-05-05 05:46 34.17563 133.08712 37354 ft 350 kts 251°
2026-05-05 05:47 34.16760 133.05933 37500 ft 351 kts 251°
2026-05-05 05:47 34.15954 133.03148 37655 ft 351 kts 251°
2026-05-05 05:47 34.15148 133.00364 37792 ft 351 kts 251°
2026-05-05 05:47 34.14338 132.97572 37930 ft 352 kts 251°
2026-05-05 05:48 34.13530 132.94789 38074 ft 352 kts 251°
2026-05-05 05:48 34.12718 132.91994 38159 ft 354 kts 251°
2026-05-05 05:48 34.11086 132.86387 38168 ft 353 kts 251°
2026-05-05 05:49 34.09456 132.80795 38168 ft 353 kts 251°
2026-05-05 05:49 34.07836 132.75248 38166 ft 353 kts 251°
2026-05-05 05:50 34.06202 132.69667 38162 ft 353 kts 251°
2026-05-05 05:50 34.04566 132.64085 38166 ft 353 kts 251°
2026-05-05 05:51 34.02925 132.58502 38163 ft 352 kts 251°
2026-05-05 05:51 34.01285 132.52928 38165 ft 352 kts 251°
2026-05-05 05:52 33.99655 132.47401 38173 ft 352 kts 251°
2026-05-05 05:52 33.98010 132.41833 38174 ft 352 kts 251°
2026-05-05 05:53 33.96644 132.37218 38173 ft 352 kts 250°
2026-05-05 05:53 33.94995 132.31659 38174 ft 352 kts 250°
2026-05-05 05:54 33.93347 132.26110 38172 ft 351 kts 250°
2026-05-05 05:54 33.91710 132.20577 38174 ft 351 kts 251°
2026-05-05 05:55 33.90331 132.14936 38171 ft 352 kts 254°
2026-05-05 05:55 33.89107 132.09216 38176 ft 352 kts 255°
2026-05-05 05:56 33.87888 132.03507 38166 ft 352 kts 255°
2026-05-05 05:56 33.86641 131.97803 38167 ft 352 kts 254°
2026-05-05 05:57 33.85379 131.92105 38160 ft 352 kts 254°
2026-05-05 05:57 33.84113 131.86413 38163 ft 352 kts 254°
2026-05-05 05:58 33.82854 131.80763 38159 ft 352 kts 254°
2026-05-05 05:58 33.81584 131.75074 38159 ft 352 kts 254°
2026-05-05 05:59 33.80312 131.69388 38156 ft 352 kts 254°
2026-05-05 05:59 33.79039 131.63708 38157 ft 352 kts 254°
2026-05-05 06:00 33.77760 131.58019 38145 ft 352 kts 254°
2026-05-05 06:00 33.76479 131.52332 38143 ft 353 kts 254°
2026-05-05 06:01 33.75193 131.46637 38131 ft 353 kts 254°
2026-05-05 06:01 33.73905 131.40945 38137 ft 353 kts 253°
2026-05-05 06:02 33.72614 131.35256 38129 ft 353 kts 253°
2026-05-05 06:02 33.71321 131.29568 38130 ft 353 kts 253°
2026-05-05 06:03 33.70023 131.23874 38129 ft 353 kts 253°
2026-05-05 06:03 33.68731 131.18220 38128 ft 353 kts 253°
2026-05-05 06:04 33.67429 131.12530 38126 ft 353 kts 253°
2026-05-05 06:04 33.66123 131.06843 38128 ft 353 kts 253°
2026-05-05 06:05 33.64817 131.01164 38133 ft 353 kts 253°
2026-05-05 06:05 33.63505 130.95475 38126 ft 354 kts 253°
2026-05-05 06:06 33.62188 130.89777 38118 ft 354 kts 253°
2026-05-05 06:06 33.60869 130.84081 38121 ft 354 kts 253°
2026-05-05 06:07 33.59543 130.78370 38113 ft 354 kts 253°
2026-05-05 06:07 33.58219 130.72677 38122 ft 355 kts 253°
2026-05-05 06:08 33.56890 130.66979 38122 ft 355 kts 253°
2026-05-05 06:08 33.55569 130.61324 38123 ft 355 kts 253°
2026-05-05 06:09 33.54234 130.55627 38129 ft 355 kts 253°
2026-05-05 06:09 33.52894 130.49920 38136 ft 355 kts 253°
2026-05-05 06:10 33.51456 130.44259 38130 ft 355 kts 248°
2026-05-05 06:10 33.49493 130.38824 38133 ft 355 kts 246°
2026-05-05 06:11 33.47416 130.33454 38126 ft 355 kts 245°
2026-05-05 06:11 33.45320 130.28113 38131 ft 354 kts 246°
2026-05-05 06:12 33.43224 130.22761 38121 ft 355 kts 246°
2026-05-05 06:12 33.41141 130.17432 38115 ft 355 kts 246°
2026-05-05 06:13 33.39049 130.12082 38115 ft 355 kts 246°
2026-05-05 06:13 33.36954 130.06728 38127 ft 356 kts 245°
2026-05-05 06:14 33.34848 130.01359 38118 ft 356 kts 245°
2026-05-05 06:14 33.32746 129.96008 38117 ft 355 kts 245°
2026-05-05 06:15 33.30642 129.90657 38124 ft 356 kts 245°
2026-05-05 06:15 33.28531 129.85302 38119 ft 356 kts 245°
2026-05-05 06:16 33.26432 129.79985 38127 ft 355 kts 245°
2026-05-05 06:16 33.24315 129.74634 38116 ft 356 kts 245°
2026-05-05 06:17 33.22192 129.69277 38130 ft 356 kts 245°
2026-05-05 06:17 33.20112 129.63894 38130 ft 356 kts 247°
2026-05-05 06:18 33.18219 129.58428 38131 ft 356 kts 248°
2026-05-05 06:18 33.16374 129.52929 38136 ft 356 kts 248°
2026-05-05 06:19 33.14518 129.47439 38135 ft 357 kts 248°
2026-05-05 06:19 33.12658 129.41994 38147 ft 357 kts 248°
2026-05-05 06:20 33.10778 129.36518 38146 ft 357 kts 248°
2026-05-05 06:20 33.08895 129.31041 38145 ft 357 kts 248°
2026-05-05 06:21 33.07007 129.25562 38141 ft 357 kts 248°
2026-05-05 06:21 33.05117 129.20082 38136 ft 357 kts 248°
2026-05-05 06:22 33.03224 129.14601 38134 ft 357 kts 248°
2026-05-05 06:22 33.01327 129.09121 38133 ft 357 kts 248°
2026-05-05 06:23 32.99439 129.03676 38146 ft 358 kts 247°
2026-05-05 06:23 32.97537 128.98199 38142 ft 358 kts 247°
2026-05-05 06:24 32.95633 128.92723 38139 ft 358 kts 247°
2026-05-05 06:24 32.93724 128.87244 38138 ft 358 kts 247°
2026-05-05 06:25 32.91814 128.81772 38140 ft 358 kts 247°
2026-05-05 06:25 32.89899 128.76294 38129 ft 359 kts 247°
2026-05-05 06:26 32.87977 128.70806 38126 ft 359 kts 247°
2026-05-05 06:26 32.86054 128.65324 38139 ft 359 kts 247°
2026-05-05 06:27 32.83166 128.57108 38140 ft 359 kts 247°
2026-05-05 06:28 32.81248 128.51664 38139 ft 359 kts 247°
2026-05-05 06:28 32.79315 128.46186 38142 ft 359 kts 247°
2026-05-05 06:29 32.77382 128.40717 38142 ft 359 kts 247°
2026-05-05 06:29 32.75443 128.35240 38141 ft 359 kts 247°
2026-05-05 06:30 32.73500 128.29762 38143 ft 360 kts 247°
2026-05-05 06:30 32.71556 128.24288 38144 ft 360 kts 247°
2026-05-05 06:31 32.69606 128.18808 38143 ft 360 kts 247°
2026-05-05 06:31 32.67665 128.13361 38142 ft 360 kts 247°
2026-05-05 06:32 32.65711 128.07886 38139 ft 360 kts 247°
2026-05-05 06:32 32.63753 128.02410 38142 ft 360 kts 247°
2026-05-05 06:33 32.61791 127.96932 38136 ft 360 kts 247°
2026-05-05 06:33 32.59829 127.91463 38141 ft 360 kts 246°
2026-05-05 06:34 32.57860 127.85983 38136 ft 361 kts 246°
2026-05-05 06:34 32.55891 127.80512 38142 ft 361 kts 246°
2026-05-05 06:35 32.53920 127.75045 38136 ft 361 kts 246°
2026-05-05 06:35 32.51957 127.69609 38137 ft 361 kts 246°
2026-05-05 06:36 32.49979 127.64140 38133 ft 361 kts 246°
2026-05-05 06:36 32.47995 127.58664 38135 ft 361 kts 246°
2026-05-05 06:37 32.46009 127.53191 38136 ft 362 kts 246°
2026-05-05 06:37 32.44020 127.47717 38134 ft 362 kts 246°
2026-05-05 06:38 32.42363 127.43166 38135 ft 362 kts 246°
2026-05-05 06:38 32.40365 127.37685 38130 ft 363 kts 246°
2026-05-05 06:39 32.38360 127.32195 38133 ft 363 kts 246°
2026-05-05 06:39 32.36357 127.26716 38135 ft 363 kts 246°
2026-05-05 06:40 32.34347 127.21230 38130 ft 363 kts 246°
2026-05-05 06:40 32.32337 127.15752 38129 ft 363 kts 246°
2026-05-05 06:41 32.30337 127.10310 38130 ft 363 kts 246°
2026-05-05 06:41 32.28365 127.04816 38134 ft 363 kts 249°
2026-05-05 06:42 32.26919 126.99080 38135 ft 364 kts 253°
2026-05-05 06:42 32.25628 126.93286 38132 ft 365 kts 253°
2026-05-05 06:43 32.24363 126.87469 38134 ft 365 kts 253°
2026-05-05 06:43 32.23094 126.81670 38133 ft 366 kts 253°
2026-05-05 06:44 32.21806 126.75837 38134 ft 366 kts 253°
2026-05-05 06:44 32.20516 126.70022 38135 ft 366 kts 253°
2026-05-05 06:45 32.19226 126.64199 38132 ft 367 kts 253°
2026-05-05 06:45 32.17970 126.58400 38132 ft 367 kts 253°
2026-05-05 06:46 32.16713 126.52564 38132 ft 367 kts 253°
2026-05-05 06:46 32.15451 126.46725 38131 ft 367 kts 253°
2026-05-05 06:47 32.14184 126.40886 38130 ft 367 kts 253°
2026-05-05 06:47 32.12912 126.35045 38132 ft 367 kts 253°
2026-05-05 06:48 32.11637 126.29202 38133 ft 367 kts 253°
2026-05-05 06:48 32.10368 126.23400 38131 ft 367 kts 253°
2026-05-05 06:49 32.09088 126.17566 38128 ft 367 kts 253°
2026-05-05 06:49 32.07806 126.11732 38128 ft 368 kts 253°
2026-05-05 06:50 32.06518 126.05880 38125 ft 368 kts 253°
2026-05-05 06:50 32.05255 126.00030 38129 ft 369 kts 254°
2026-05-05 06:51 32.04000 125.94167 38128 ft 369 kts 254°
2026-05-05 06:51 32.02741 125.88301 38128 ft 369 kts 254°
2026-05-05 06:52 32.01476 125.82431 38123 ft 369 kts 254°
2026-05-05 06:52 32.00210 125.76605 38124 ft 369 kts 253°
2026-05-05 06:53 31.98914 125.70742 38125 ft 369 kts 253°
2026-05-05 06:53 31.97612 125.64888 38122 ft 369 kts 253°
2026-05-05 06:54 31.96306 125.59031 38123 ft 370 kts 253°
2026-05-05 06:54 31.95005 125.53197 38118 ft 370 kts 253°
2026-05-05 06:55 31.93695 125.47339 38118 ft 370 kts 253°
2026-05-05 06:55 31.92380 125.41471 38115 ft 371 kts 253°
2026-05-05 06:55 31.91721 125.38534 37930 ft 371 kts 253°
2026-05-05 06:56 31.91061 125.35596 37672 ft 372 kts 253°
2026-05-05 06:56 31.90398 125.32652 37411 ft 372 kts 253°
2026-05-05 06:56 31.89735 125.29706 37155 ft 372 kts 253°
2026-05-05 06:56 31.89070 125.26756 36902 ft 373 kts 253°
2026-05-05 06:57 31.88404 125.23807 36649 ft 373 kts 253°
2026-05-05 06:57 31.87737 125.20859 36401 ft 373 kts 253°
2026-05-05 06:57 31.87070 125.17910 36167 ft 374 kts 253°
2026-05-05 06:57 31.86400 125.14953 35914 ft 374 kts 253°
2026-05-05 06:58 31.85729 125.11995 35675 ft 374 kts 253°
2026-05-05 06:58 31.85057 125.09035 35438 ft 375 kts 253°
2026-05-05 06:58 31.84382 125.06069 35200 ft 375 kts 253°
2026-05-05 06:58 31.83715 125.03137 34966 ft 375 kts 253°
2026-05-05 06:59 31.83041 125.00167 34726 ft 376 kts 253°
2026-05-05 06:59 31.82381 124.97187 34522 ft 377 kts 253°
2026-05-05 06:59 31.81732 124.94196 34286 ft 377 kts 253°
2026-05-05 06:59 31.81088 124.91206 34053 ft 378 kts 253°
2026-05-05 07:00 31.80444 124.88212 33782 ft 378 kts 253°
2026-05-05 07:00 31.79796 124.85206 33519 ft 379 kts 253°
2026-05-05 07:00 31.79143 124.82188 33255 ft 380 kts 253°
2026-05-05 07:00 31.78490 124.79173 32995 ft 382 kts 253°
2026-05-05 07:01 31.77832 124.76146 32735 ft 383 kts 253°
2026-05-05 07:01 31.77171 124.73114 32482 ft 384 kts 253°
2026-05-05 07:01 31.76508 124.70074 32226 ft 385 kts 253°
2026-05-05 07:01 31.75842 124.67024 31977 ft 386 kts 253°
2026-05-05 07:02 31.75172 124.63958 31730 ft 387 kts 253°
2026-05-05 07:02 31.74507 124.60923 31485 ft 389 kts 253°
2026-05-05 07:02 31.73832 124.57844 31250 ft 390 kts 253°
2026-05-05 07:02 31.73153 124.54747 31016 ft 391 kts 253°
2026-05-05 07:03 31.72472 124.51647 30768 ft 392 kts 253°
2026-05-05 07:03 31.71786 124.48532 30524 ft 394 kts 253°
2026-05-05 07:03 31.71099 124.45413 30290 ft 395 kts 253°
2026-05-05 07:03 31.70410 124.42288 30036 ft 396 kts 253°
2026-05-05 07:04 31.69716 124.39146 29755 ft 398 kts 253°
2026-05-05 07:04 31.69019 124.35992 29465 ft 400 kts 253°
2026-05-05 07:04 31.68327 124.32868 29201 ft 402 kts 253°
2026-05-05 07:04 31.67621 124.29683 28936 ft 403 kts 253°
2026-05-05 07:05 31.66913 124.26495 28657 ft 405 kts 254°
2026-05-05 07:05 31.66199 124.23282 28394 ft 407 kts 254°
2026-05-05 07:05 31.65481 124.20055 28127 ft 409 kts 254°
2026-05-05 07:05 31.64760 124.16818 27782 ft 410 kts 254°
2026-05-05 07:06 31.64035 124.13569 27443 ft 413 kts 254°
2026-05-05 07:06 31.63304 124.10295 27143 ft 416 kts 254°
2026-05-05 07:06 31.62568 124.07006 26838 ft 418 kts 254°
2026-05-05 07:06 31.61828 124.03700 26539 ft 420 kts 254°
2026-05-05 07:07 31.61083 124.00374 26244 ft 422 kts 254°
2026-05-05 07:07 31.60345 123.97034 25949 ft 423 kts 254°
2026-05-05 07:07 31.59611 123.93682 25658 ft 423 kts 255°
2026-05-05 07:07 31.58882 123.90336 25380 ft 423 kts 255°
2026-05-05 07:08 31.58153 123.86992 25089 ft 423 kts 255°
2026-05-05 07:08 31.57433 123.83694 24808 ft 422 kts 255°
2026-05-05 07:08 31.56704 123.80360 24531 ft 422 kts 255°
2026-05-05 07:08 31.55972 123.77026 24253 ft 422 kts 255°
2026-05-05 07:09 31.55239 123.73692 23980 ft 422 kts 255°
2026-05-05 07:09 31.54506 123.70361 23712 ft 421 kts 255°
2026-05-05 07:09 31.53773 123.67041 23399 ft 421 kts 255°
2026-05-05 07:09 31.53040 123.63721 23070 ft 420 kts 255°
2026-05-05 07:10 31.52308 123.60409 22751 ft 419 kts 255°
2026-05-05 07:10 31.51578 123.57114 22434 ft 418 kts 255°
2026-05-05 07:10 31.50851 123.53836 22121 ft 416 kts 255°
2026-05-05 07:10 31.50125 123.50537 21807 ft 415 kts 256°
2026-05-05 07:11 31.49469 123.47240 21493 ft 414 kts 257°
2026-05-05 07:11 31.48846 123.43956 21158 ft 413 kts 257°
2026-05-05 07:11 31.48227 123.40676 20834 ft 411 kts 257°
2026-05-05 07:11 31.47611 123.37415 20512 ft 410 kts 257°
2026-05-05 07:12 31.47001 123.34193 20197 ft 409 kts 257°
2026-05-05 07:12 31.46383 123.30946 19878 ft 408 kts 257°
2026-05-05 07:12 31.45766 123.27703 19573 ft 407 kts 257°
2026-05-05 07:12 31.45147 123.24463 19266 ft 406 kts 257°
2026-05-05 07:13 31.44531 123.21236 18955 ft 405 kts 257°
2026-05-05 07:13 31.43916 123.18024 18656 ft 404 kts 257°
2026-05-05 07:13 31.43300 123.14814 18354 ft 403 kts 257°
2026-05-05 07:13 31.42685 123.11608 18016 ft 402 kts 257°
2026-05-05 07:14 31.42080 123.08460 17672 ft 400 kts 257°
2026-05-05 07:14 31.41468 123.05282 17336 ft 399 kts 257°
2026-05-05 07:14 31.40858 123.02117 17001 ft 397 kts 257°
2026-05-05 07:14 31.40250 122.98971 16668 ft 395 kts 257°
2026-05-05 07:15 31.39644 122.95835 16334 ft 394 kts 257°
2026-05-05 07:15 31.39040 122.92714 16015 ft 392 kts 257°
2026-05-05 07:15 31.38436 122.89603 15792 ft 391 kts 258°
2026-05-05 07:15 31.37833 122.86499 15756 ft 391 kts 257°
2026-05-05 07:16 31.37231 122.83402 15754 ft 390 kts 257°
2026-05-05 07:16 31.36630 122.80316 15755 ft 389 kts 257°
2026-05-05 07:16 31.35857 122.77312 15755 ft 390 kts 249°
2026-05-05 07:16 31.34697 122.74461 15401 ft 386 kts 243°
2026-05-05 07:17 31.33419 122.71705 14726 ft 384 kts 242°
2026-05-05 07:17 31.32124 122.68984 14144 ft 383 kts 242°
2026-05-05 07:17 31.30831 122.66262 13520 ft 382 kts 242°
2026-05-05 07:17 31.29547 122.63549 12871 ft 380 kts 242°
2026-05-05 07:18 31.28276 122.60858 12235 ft 376 kts 242°
2026-05-05 07:18 31.27017 122.58189 11613 ft 374 kts 242°
2026-05-05 07:18 31.25769 122.55541 11010 ft 371 kts 242°
2026-05-05 07:18 31.24530 122.52912 10409 ft 366 kts 242°
2026-05-05 07:19 31.23315 122.50333 9808 ft 359 kts 242°
2026-05-05 07:19 31.22119 122.47800 9152 ft 353 kts 242°
2026-05-05 07:19 31.20942 122.45307 8513 ft 347 kts 242°
2026-05-05 07:19 31.19785 122.42858 7897 ft 342 kts 241°
2026-05-05 07:20 31.18644 122.40443 7319 ft 337 kts 241°
2026-05-05 07:20 31.17531 122.38090 7017 ft 323 kts 241°
2026-05-05 07:20 31.16476 122.35861 6955 ft 303 kts 241°
2026-05-05 07:20 31.15489 122.33779 6911 ft 285 kts 241°
2026-05-05 07:21 31.14549 122.31793 6904 ft 276 kts 241°
2026-05-05 07:21 31.13620 122.29834 6900 ft 276 kts 241°
2026-05-05 07:21 31.12704 122.27903 6898 ft 265 kts 241°
2026-05-05 07:21 31.11840 122.26083 6899 ft 256 kts 241°
2026-05-05 07:22 31.10984 122.24279 6895 ft 254 kts 241°
2026-05-05 07:22 31.10134 122.22464 6896 ft 255 kts 244°
2026-05-05 07:22 31.09615 122.20497 6894 ft 254 kts 266°
2026-05-05 07:22 31.09914 122.18492 6895 ft 253 kts 296°
2026-05-05 07:23 31.10969 122.16894 6891 ft 254 kts 316°
2026-05-05 07:23 31.12306 122.15537 6885 ft 256 kts 320°
2026-05-05 07:23 31.13799 122.14405 6878 ft 256 kts 338°
2026-05-05 07:23 31.15537 122.14063 6881 ft 255 kts
2026-05-05 07:24 31.17195 122.14757 6895 ft 255 kts 33°
2026-05-05 07:24 31.18586 122.16043 6886 ft 257 kts 41°
2026-05-05 07:24 31.19914 122.17451 6885 ft 258 kts 42°
2026-05-05 07:24 31.21238 122.18871 6897 ft 258 kts 42°
2026-05-05 07:25 31.22116 122.19806 6896 ft 258 kts 42°
2026-05-05 07:25 31.23974 122.21531 6897 ft 258 kts 30°
2026-05-05 07:25 31.25563 122.22503 6894 ft 258 kts 25°
2026-05-05 07:25 31.27183 122.23394 6893 ft 258 kts 24°
2026-05-05 07:26 31.28812 122.24274 6891 ft 258 kts 24°
2026-05-05 07:26 31.30441 122.25157 6893 ft 258 kts 25°
2026-05-05 07:26 31.32070 122.26043 6895 ft 258 kts 25°
2026-05-05 07:26 31.33155 122.26610 6897 ft 258 kts 20°
2026-05-05 07:27 31.34881 122.27149 6901 ft 257 kts 10°
2026-05-05 07:27 31.36649 122.27489 6894 ft 257 kts
2026-05-05 07:27 31.38420 122.27791 6890 ft 257 kts
2026-05-05 07:27 31.40195 122.28091 6891 ft 257 kts
2026-05-05 07:28 31.41979 122.28185 6886 ft 257 kts 351°
2026-05-05 07:28 31.43623 122.27449 6888 ft 254 kts 322°
2026-05-05 07:28 31.44909 122.25236 6887 ft 252 kts 283°
2026-05-05 07:28 31.45071 122.23866 6890 ft 253 kts 273°
2026-05-05 07:29 31.45098 122.21829 6887 ft 254 kts 269°
2026-05-05 07:29 31.45073 122.19752 6882 ft 255 kts 269°
2026-05-05 07:29 31.45050 122.17676 6598 ft 255 kts 269°
2026-05-05 07:29 31.45037 122.15603 6242 ft 254 kts 269°
2026-05-05 07:30 31.45030 122.13534 5875 ft 253 kts 269°
2026-05-05 07:30 31.45025 122.09437 5020 ft 256 kts 269°
2026-05-05 07:30 31.45024 122.07338 4536 ft 259 kts 268°
2026-05-05 07:31 31.45023 122.05216 4021 ft 261 kts 268°
2026-05-05 07:31 31.45023 122.03111 3526 ft 256 kts 267°
2026-05-05 07:31 31.45023 122.01059 3113 ft 248 kts 266°
2026-05-05 07:31 31.45022 121.99091 2995 ft 238 kts 266°
2026-05-05 07:32 31.45020 121.97185 2982 ft 237 kts 266°
2026-05-05 07:32 31.45017 121.95224 2974 ft 238 kts 266°
2026-05-05 07:32 31.45014 121.93314 2979 ft 239 kts 266°
2026-05-05 07:32 31.45012 121.91358 2977 ft 239 kts 266°
2026-05-05 07:33 31.45010 121.89410 2973 ft 239 kts 266°
2026-05-05 07:33 31.45008 121.87480 2983 ft 233 kts 266°
2026-05-05 07:33 31.45008 121.85631 2979 ft 222 kts 266°
2026-05-05 07:33 31.44971 121.83855 2993 ft 214 kts 260°
2026-05-05 07:34 31.44734 121.82135 3021 ft 215 kts 255°
2026-05-05 07:34 31.44420 121.80426 2959 ft 213 kts 255°
2026-05-05 07:34 31.44112 121.78800 2974 ft 195 kts 254°
2026-05-05 07:34 31.43827 121.77298 2970 ft 186 kts 253°
2026-05-05 07:35 31.43544 121.75823 2973 ft 185 kts 253°
2026-05-05 07:35 31.43269 121.74388 2957 ft 171 kts 251°
2026-05-05 07:35 31.42815 121.73155 2972 ft 165 kts 230°
2026-05-05 07:35 31.41882 121.72466 2971 ft 162 kts 188°
2026-05-05 07:36 31.40742 121.72463 2973 ft 166 kts 174°
2026-05-05 07:36 31.39602 121.72716 2968 ft 167 kts 167°
2026-05-05 07:36 31.38481 121.73097 2970 ft 168 kts 164°
2026-05-05 07:36 31.37368 121.73521 2978 ft 167 kts 163°
2026-05-05 07:37 31.36267 121.73947 2978 ft 169 kts 164°
2026-05-05 07:37 31.35142 121.74375 2982 ft 169 kts 164°
2026-05-05 07:37 31.34031 121.74792 2962 ft 168 kts 164°
2026-05-05 07:37 31.32930 121.75204 2969 ft 168 kts 164°
2026-05-05 07:38 31.31820 121.75622 2963 ft 163 kts 164°
2026-05-05 07:38 31.30816 121.76002 2980 ft 143 kts 164°
2026-05-05 07:38 31.29887 121.76356 2870 ft 139 kts 165°
2026-05-05 07:38 31.28967 121.76707 2679 ft 139 kts 164°
2026-05-05 07:39 31.28046 121.77057 2483 ft 138 kts 164°
2026-05-05 07:39 31.27141 121.77400 2299 ft 135 kts 164°
2026-05-05 07:39 31.26277 121.77729 2133 ft 125 kts 165°
2026-05-05 07:39 31.25467 121.78035 1963 ft 121 kts 165°
2026-05-05 07:40 31.24662 121.78341 1800 ft 121 kts 165°
2026-05-05 07:40 31.23860 121.78645 1638 ft 121 kts 165°
2026-05-05 07:40 31.23058 121.78949 1472 ft 121 kts 164°
2026-05-05 07:40 31.22259 121.79253 1312 ft 121 kts 166°
2026-05-05 07:41 31.21461 121.79555 1124 ft 121 kts 166°
2026-05-05 07:41 31.20660 121.79859 969 ft 120 kts 166°
2026-05-05 07:41 31.19869 121.80155 813 ft 121 kts 164°
2026-05-05 07:41 31.19059 121.80459 616 ft 120 kts 160°
2026-05-05 07:42 31.18288 121.80780 452 ft 120 kts 162°
2026-05-05 07:42 31.17487 121.81068 312 ft 121 kts 162°
2026-05-05 07:42 31.16681 121.81365 166 ft 120 kts 162°
2026-05-05 07:42 31.15873 121.81667 67 ft 123 kts 162°
2026-05-05 07:43 31.15106 121.81964 29 ft 98 kts 162°
2026-05-05 07:43 31.14660 121.82130 24 ft 56 kts 162°
2026-05-05 07:43 31.14367 121.82177 26 ft 39 kts 189°
2026-05-05 07:43 31.14250 121.82090 26 ft 17 kts 295°
2026-05-05 07:44 31.14353 121.82040 27 ft 16 kts 344°
2026-05-05 07:44 31.14458 121.81998 25 ft 16 kts 342°
2026-05-05 07:44 31.14564 121.81959 25 ft 16 kts 342°
2026-05-05 07:44 31.14670 121.81919 25 ft 16 kts 340°
2026-05-05 07:45 31.14775 121.81878 25 ft 16 kts 341°
2026-05-05 07:45 31.14881 121.81838 26 ft 16 kts 341°
2026-05-05 07:45 31.14977 121.81783 26 ft 15 kts 296°
2026-05-05 07:45 31.14962 121.81675 25 ft 7 kts 252°
2026-05-05 07:46 31.14962 121.81673 25 ft 0 kts 252°
2026-05-05 07:46 31.14958 121.81660 25 ft 8 kts 252°
2026-05-05 07:46 31.14925 121.81542 25 ft 17 kts 252°
2026-05-05 07:46 31.14888 121.81408 25 ft 17 kts 252°
2026-05-05 07:47 31.14851 121.81275 29 ft 17 kts 252°
2026-05-05 07:47 31.14813 121.81139 26 ft 18 kts 252°
2026-05-05 07:47 31.14756 121.81061 26 ft 12 kts 168°
2026-05-05 07:47 31.14693 121.81047 26 ft 9 kts 268°
2026-05-05 07:48 31.14720 121.80985 27 ft 9 kts 296°
2026-05-05 07:48 31.14734 121.80952 27 ft 0 kts 297°